EW8434 Weather Reports


Display with metric or nautical units.
time (UTC)temp
F
wind
direction
speed
MPH
gust
MPH
rain 1hr
in
rain 24hr
in
rain mn
in
humidity
%
barometer
mb
20190421144726 71 161 1.0 6.0 0.00 0.00 0.00 29 1015.2
20190421144226 70 132 1.0 3.0 0.00 0.00 0.00 28 1015.3
20190421143726 70 154 0.0 3.0 0.00 0.00 0.00 29 1015.3
20190421143226 69 99 0.0 3.0 0.00 0.00 0.00 30 1015.3
20190421142726 69 99 0.0 3.0 0.00 0.00 0.00 32 1015.3
20190421142226 68 57 0.0 1.0 0.00 0.00 0.00 34 1015.1
20190421141726 67 40 0.0 1.0 0.00 0.00 0.00 35 1015.2
20190421141226 67 40 0.0 2.0 0.00 0.00 0.00 34 1015.1
20190421140726 66 40 0.0 2.0 0.00 0.00 0.00 34 1015.2
20190421140226 65 139 0.0 3.0 0.00 0.00 0.00 36 1015.0
20190421135726 64 139 0.0 3.0 0.00 0.00 0.00 37 1015.1
20190421135226 64 139 1.0 4.0 0.00 0.00 0.00 38 1015.0
20190421134726 63 139 1.0 4.0 0.00 0.00 0.00 38 1015.0
20190421134226 64 142 0.0 2.0 0.00 0.00 0.00 37 1015.0
20190421133726 63 36 0.0 1.0 0.00 0.00 0.00 37 1014.9
20190421133226 64 27 0.0 1.0 0.00 0.00 0.00 36 1014.9
20190421132726 64 27 0.0 1.0 0.00 0.00 0.00 36 1014.9
20190421132226 63 27 0.0 1.0 0.00 0.00 0.00 36 1014.8
20190421131726 64 27 0.0 2.0 0.00 0.00 0.00 35 1014.8
20190421131226 64 27 0.0 2.0 0.00 0.00 0.00 35 1014.7
20190421130724 63 27 0.0 2.0 0.00 0.00 0.00 36 1014.6
20190421130225 62 27 0.0 2.0 0.00 0.00 0.00 37 1014.6
20190421125723 63 17 0.0 1.0 0.00 0.00 0.00 36 1014.5
20190421125222 63 17 0.0 1.0 0.00 0.00 0.00 35 1014.4
20190421124723 63 17 0.0 1.0 0.00 0.00 0.00 36 1014.3
20190421124222 63 11 0.0 3.0 0.00 0.00 0.00 36 1014.3
20190421123722 63 11 1.0 3.0 0.00 0.00 0.00 36 1014.3
20190421123222 62 57 1.0 2.0 0.00 0.00 0.00 37 1014.4
20190421122722 61 57 0.0 1.0 0.00 0.00 0.00 38 1014.3
20190421122223 62 57 0.0 3.0 0.00 0.00 0.00 38 1014.3
20190421121723 62 57 1.0 3.0 0.00 0.00 0.00 36 1014.3
20190421121222 62 55 1.0 2.0 0.00 0.00 0.00 36 1014.3
20190421120722 63 55 0.0 2.0 0.00 0.00 0.00 35 1014.1
20190421120223 65 55 0.0 1.0 0.00 0.00 0.00 33 1014.1
20190421115723 65 55 0.0 1.0 0.00 0.00 0.00 33 1014.1
20190421115222 65 55 0.0 2.0 0.00 0.00 0.00 33 1014.3
20190421114720 64 55 0.0 2.0 0.00 0.00 0.00 33 1014.1
20190421114218 64 55 0.0 1.0 0.00 0.00 0.00 33 1014.1
20190421113718 65 55 0.0 2.0 0.00 0.00 0.00 32 1014.0
20190421113214 65 55 1.0 2.0 0.00 0.00 0.00 32 1014.0
20190421112710 65 55 0.0 3.0 0.00 0.00 0.00 33 1013.9
20190421112206 64 55 0.0 3.0 0.00 0.00 0.00 33 1013.9
20190421111705 64 55 1.0 3.0 0.00 0.00 0.00 33 1013.9
20190421111204 65 55 1.0 3.0 0.00 0.00 0.00 32 1013.9
20190421110705 64 55 1.0 3.0 0.00 0.00 0.00 33 1013.8
20190421110204 64 55 1.0 2.0 0.00 0.00 0.00 33 1013.9
20190421105704 64 55 1.0 2.0 0.00 0.00 0.00 33 1014.0
20190421105204 64 55 1.0 2.0 0.00 0.00 0.00 33 1013.8
20190421104704 64 55 0.0 2.0 0.00 0.00 0.00 33 1013.9
20190421104204 63 55 0.0 1.0 0.00 0.00 0.00 34 1013.9
20190421103703 63 55 0.0 1.0 0.00 0.00 0.00 35 1013.9
20190421103203 63 55 0.0 1.0 0.00 0.00 0.00 34 1013.9
20190421102659 63 55 0.0 2.0 0.00 0.00 0.00 34 1013.9
20190421102156 64 55 0.0 2.0 0.00 0.00 0.00 33 1013.9
20190421101700 64 55 0.0 2.0 0.00 0.00 0.00 33 1014.1
20190421101157 63 55 0.0 2.0 0.00 0.00 0.00 34 1013.9
20190421100657 63 55 0.0 1.0 0.00 0.00 0.00 34 1013.8
20190421100156 64 55 0.0 1.0 0.00 0.00 0.00 34 1013.8
20190421095656 64 55 0.0 1.0 0.00 0.00 0.00 33 1013.8
20190421095156 64 55 0.0 1.0 0.00 0.00 0.00 33 1013.8
20190421094656 64 55 0.0 1.0 0.00 0.00 0.00 33 1013.8
20190421094155 64 55 0.0 2.0 0.00 0.00 0.00 33 1013.7
20190421093655 64 55 0.0 2.0 0.00 0.00 0.00 32 1013.8
20190421093155 65 55 0.0 2.0 0.00 0.00 0.00 31 1013.8
20190421092655 65 55 0.0 2.0 0.00 0.00 0.00 31 1013.8
20190421092154 64 78 0.0 1.0 0.00 0.00 0.00 33 1013.8
20190421091655 65 78 0.0 1.0 0.00 0.00 0.00 31 1013.9
20190421091154 67 78 0.0 2.0 0.00 0.00 0.00 30 1013.8
20190421090654 67 78 0.0 2.0 0.00 0.00 0.00 29 1013.8
20190421090154 67 78 0.0 2.0 0.00 0.00 0.00 30 1013.9
20190421085654 66 78 0.0 1.0 0.00 0.00 0.00 29 1013.9
20190421085152 66 78 0.0 2.0 0.00 0.00 0.00 29 1013.9
20190421084652 67 78 1.0 2.0 0.00 0.00 0.00 28 1013.9
20190421084155 67 75 0.0 2.0 0.00 0.00 0.00 28 1014.0
20190421083655 67 88 0.0 2.0 0.00 0.00 0.00 28 1013.9
20190421083152 66 89 0.0 0.0 0.00 0.00 0.00 29 1013.9
20190421082652 66 89 1.0 2.0 0.00 0.00 0.00 29 1014.0
20190421082152 66 89 1.0 2.0 0.00 0.00 0.00 29 1014.0
20190421081652 66 89 1.0 2.0 0.00 0.00 0.00 28 1014.0
20190421081150 66 146 0.0 2.0 0.00 0.00 0.00 28 1014.1
20190421080650 67 146 0.0 3.0 0.00 0.00 0.00 27 1014.3
20190421080150 67 146 0.0 3.0 0.00 0.00 0.00 27 1014.3
20190421075650 67 146 0.0 2.0 0.00 0.00 0.00 27 1014.1
20190421075151 67 146 0.0 0.0 0.00 0.00 0.00 27 1014.4
20190421074650 67 146 0.0 0.0 0.00 0.00 0.00 28 1014.1
20190421074150 66 146 0.0 0.0 0.00 0.00 0.00 28 1014.3
20190421073650 67 146 0.0 2.0 0.00 0.00 0.00 28 1014.3
20190421073150 67 146 1.0 2.0 0.00 0.00 0.00 27 1014.1
20190421072650 67 146 0.0 1.0 0.00 0.00 0.00 27 1014.3
20190421071648 69 146 0.0 1.0 0.00 0.00 0.00 25 1014.4
20190421071148 68 146 0.0 1.0 0.00 0.00 0.00 26 1014.1
20190421070645 67 144 0.0 3.0 0.00 0.00 0.00 26 1014.1
20190421070144 67 144 0.0 3.0 0.00 0.00 0.00 26 1014.1
20190421065644 67 144 0.0 1.0 0.00 0.00 0.00 26 1014.1
20190421065143 67 144 0.0 1.0 0.00 0.00 0.00 26 1014.1
20190421064646 68 144 0.0 1.0 0.00 0.00 0.00 25 1014.0
20190421064144 69 144 0.0 1.0 0.00 0.00 0.00 24 1013.9
20190421063644 69 144 0.0 1.0 0.00 0.00 0.00 24 1013.9
20190421063144 70 144 0.0 2.0 0.00 0.00 0.00 24 1013.9
20190421062644 70 144 0.0 3.0 0.00 0.00 0.00 24 1014.0
20190421062147 69 144 1.0 3.0 0.00 0.00 0.00 24 1014.0
20190421061644 69 318 1.0 2.0 0.00 0.00 0.00 23 1013.9
20190421061143 70 317 0.0 1.0 0.00 0.00 0.00 23 1013.9
20190421060642 69 317 0.0 1.0 0.00 0.00 0.00 23 1013.9
20190421060142 69 317 0.0 1.0 0.00 0.00 0.00 23 1013.9
20190421055640 69 317 0.0 1.0 0.00 0.00 0.00 23 1013.8
20190421055141 69 317 0.0 1.0 0.00 0.00 0.00 23 1013.9
20190421054640 69 317 0.0 1.0 0.00 0.00 0.00 23 1013.9
20190421054140 69 317 0.0 1.0 0.00 0.00 0.00 22 1013.9
20190421053640 69 317 0.0 1.0 0.00 0.00 0.00 22 1013.9
20190421053139 69 317 0.0 0.0 0.00 0.00 0.00 22 1013.9
20190421052636 70 317 0.0 1.0 0.00 0.00 0.00 22 1013.9
20190421052136 70 317 0.0 1.0 0.00 0.00 0.00 21 1013.8
20190421051636 71 317 0.0 1.0 0.00 0.00 0.00 20 1013.9
20190421051134 72 317 0.0 1.0 0.00 0.00 0.00 19 1013.9
20190421050632 71 317 0.0 1.0 0.00 0.00 0.00 20 1013.8
20190421050132 71 317 0.0 2.0 0.00 0.00 0.00 20 1013.8
20190421045631 71 317 1.0 3.0 0.00 0.00 0.00 20 1013.8
20190421045131 71 317 2.0 4.0 0.00 0.00 0.00 19 1013.7
20190421044631 72 334 2.0 4.0 0.00 0.00 0.00 19 1013.6
20190421044131 72 333 2.0 4.0 0.00 0.00 0.00 19 1013.7
20190421043632 73 333 2.0 4.0 0.00 0.00 0.00 18 1013.6
20190421043129 73 336 3.0 5.0 0.00 0.00 0.00 18 1013.5
20190421042630 73 331 3.0 5.0 0.00 0.00 0.00 18 1013.6
20190421042130 73 326 3.0 4.0 0.00 0.00 0.00 18 1013.5
20190421041630 73 330 2.0 4.0 0.00 0.00 0.00 18 1013.5
20190421041129 73 311 2.0 4.0 0.00 0.00 0.00 18 1013.5
20190421040630 73 318 2.0 4.0 0.00 0.00 0.00 18 1013.5
20190421040132 73 331 1.0 4.0 0.00 0.00 0.00 18 1013.5
20190421035630 72 333 1.0 2.0 0.00 0.00 0.00 18 1013.5
20190421035129 73 333 0.0 2.0 0.00 0.00 0.00 18 1013.5
20190421034630 73 259 0.0 1.0 0.00 0.00 0.00 18 1013.5
20190421034130 74 259 0.0 1.0 0.00 0.00 0.00 17 1013.4
20190421033630 75 259 0.0 1.0 0.00 0.00 0.00 17 1013.4
20190421033129 75 259 0.0 1.0 0.00 0.00 0.00 16 1013.4
20190421032630 75 259 0.0 1.0 0.00 0.00 0.00 16 1013.4
20190421032130 76 252 0.0 3.0 0.00 0.00 0.00 16 1013.2
20190421031629 76 241 0.0 3.0 0.00 0.00 0.00 16 1013.2
20190421031130 76 315 0.0 3.0 0.00 0.00 0.00 16 1013.0
20190421030629 76 210 1.0 3.0 0.00 0.00 0.00 15 1012.8
20190421030129 77 210 1.0 4.0 0.00 0.00 0.00 14 1012.7
20190421025632 78 210 2.0 5.0 0.00 0.00 0.00 14 1012.6
20190421025130 78 240 3.0 10.0 0.00 0.00 0.00 14 1012.5
20190421024629 79 189 4.0 10.0 0.00 0.00 0.00 14 1012.5
20190421024129 78 258 3.0 10.0 0.00 0.00 0.00 14 1012.4
20190421023630 78 229 2.0 6.0 0.00 0.00 0.00 14 1012.4
20190421023130 78 207 2.0 5.0 0.00 0.00 0.00 14 1012.2
20190421022630 79 231 1.0 5.0 0.00 0.00 0.00 14 1012.1
20190421022130 79 105 1.0 3.0 0.00 0.00 0.00 13 1012.0
20190421021630 79 232 1.0 3.0 0.00 0.00 0.00 13 1011.9
20190421021130 80 249 1.0 2.0 0.00 0.00 0.00 13 1011.8
20190421020630 80 320 1.0 2.0 0.00 0.00 0.00 13 1011.8
20190421020137 81 193 1.0 4.0 0.00 0.00 0.00 12 1011.7
20190421015631 81 144 1.0 5.0 0.00 0.00 0.00 12 1011.7
20190421015130 81 295 1.0 5.0 0.00 0.00 0.00 12 1011.7
20190421014632 82 238 1.0 10.0 0.00 0.00 0.00 12 1011.6
20190421014129 82 286 1.0 10.0 0.00 0.00 0.00 12 1011.6
20190421013630 83 223 1.0 4.0 0.00 0.00 0.00 12 1011.4
20190421013130 83 207 1.0 4.0 0.00 0.00 0.00 12 1011.6
20190421012630 83 341 2.0 4.0 0.00 0.00 0.00 11 1011.6
20190421012130 84 261 2.0 10.0 0.00 0.00 0.00 11 1011.6
20190421011629 84 306 2.0 10.0 0.00 0.00 0.00 11 1011.4
20190421011130 84 347 3.0 10.0 0.00 0.00 0.00 11 1011.4
20190421010629 85 244 5.0 10.0 0.00 0.00 0.00 11 1011.4
20190421010130 85 209 4.0 10.0 0.00 0.00 0.00 11 1011.3
20190421005629 85 198 3.0 11.0 0.00 0.00 0.00 11 1011.3
20190421005127 85 225 4.0 10.0 0.00 0.00 0.00 11 1011.4
20190421004627 86 215 3.0 10.0 0.00 0.00 0.00 11 1011.4
20190421004127 86 185 3.0 10.0 0.00 0.00 0.00 11 1011.7
20190421003628 87 232 4.0 10.0 0.00 0.00 0.00 11 1011.6
20190421003127 87 219 3.0 8.0 0.00 0.00 0.00 10 1011.4
20190421002625 87 150 3.0 8.0 0.00 0.00 0.00 10 1011.4
20190421002126 87 231 2.0 7.0 0.00 0.00 0.00 10 1011.6
20190421001627 88 254 2.0 5.0 0.00 0.00 0.00 10 1011.4
20190421001126 88 231 3.0 8.0 0.00 0.00 0.00 10 1011.4
20190421000705 88 198 3.0 8.0 0.00 0.00 0.00 10 1011.4
20190421000126 88 0 3.0 5.0 0.00 0.00 0.00 9 1011.4
20190420235625 88 222 2.0 13.0 0.00 0.00 0.00 9 1011.4
20190420235123 89 321 2.0 13.0 0.00 0.00 0.00 9 1011.4
20190420234623 89 242 2.0 7.0 0.00 0.00 0.00 9 1011.4
20190420234123 90 273 2.0 7.0 0.00 0.00 0.00 9 1011.6
20190420233623 89 101 2.0 7.0 0.00 0.00 0.00 9 1011.4
20190420233123 89 32 2.0 5.0 0.00 0.00 0.00 9 1011.4
20190420232623 89 254 2.0 5.0 0.00 0.00 0.00 8 1011.6
20190420232123 89 246 3.0 5.0 0.00 0.00 0.00 9 1011.4
20190420231623 90 11 3.0 10.0 0.00 0.00 0.00 9 1011.4
20190420231123 90 202 3.0 10.0 0.00 0.00 0.00 9 1011.6
20190420230623 91 211 4.0 11.0 0.00 0.00 0.00 9 1011.6
20190420230124 90 181 5.0 15.0 0.00 0.00 0.00 9 1011.6
20190420225623 90 171 4.0 14.0 0.00 0.00 0.00 9 1011.4
20190420225121 90 196 4.0 14.0 0.00 0.00 0.00 9 1011.4
20190420224623 90 146 5.0 14.0 0.00 0.00 0.00 9 1011.4
20190420224121 90 246 5.0 12.0 0.00 0.00 0.00 9 1011.4
20190420223622 91 161 5.0 11.0 0.00 0.00 0.00 9 1011.4
20190420223121 91 158 5.0 12.0 0.00 0.00 0.00 9 1011.6
20190420222621 90 206 5.0 13.0 0.00 0.00 0.00 9 1011.6
20190420222121 91 231 5.0 13.0 0.00 0.00 0.00 9 1011.7
20190420221622 91 232 5.0 17.0 0.00 0.00 0.00 9 1011.7
20190420221121 90 247 5.0 17.0 0.00 0.00 0.00 9 1011.8
20190420220621 91 203 3.0 9.0 0.00 0.00 0.00 8 1011.9
20190420220121 92 182 2.0 9.0 0.00 0.00 0.00 9 1011.9
20190420215621 91 331 4.0 17.0 0.00 0.00 0.00 8 1012.0
20190420215122 91 248 4.0 17.0 0.00 0.00 0.00 9 1012.1
20190420214622 92 227 3.0 16.0 0.00 0.00 0.00 9 1012.1
20190420214121 91 340 5.0 18.0 0.00 0.00 0.00 9 1012.2
20190420213621 91 227 4.0 18.0 0.00 0.00 0.00 8 1012.2
20190420213121 92 204 3.0 10.0 0.00 0.00 0.00 9 1012.2
20190420212621 91 339 4.0 10.0 0.00 0.00 0.00 9 1012.5
20190420212121 92 232 5.0 11.0 0.00 0.00 0.00 9 1012.5
20190420211619 91 292 5.0 14.0 0.00 0.00 0.00 8 1012.5
20190420211119 92 289 6.0 14.0 0.00 0.00 0.00 8 1012.5
20190420210619 92 211 4.0 12.0 0.00 0.00 0.00 9 1012.5
20190420210119 92 205 4.0 11.0 0.00 0.00 0.00 9 1012.6
20190420205619 91 242 5.0 12.0 0.00 0.00 0.00 9 1012.8
20190420205119 91 227 6.0 12.0 0.00 0.00 0.00 9 1012.6
20190420204619 92 209 4.0 11.0 0.00 0.00 0.00 8 1012.7
20190420204119 91 238 4.0 11.0 0.00 0.00 0.00 9 1012.8
20190420203619 91 229 5.0 21.0 0.00 0.00 0.00 10 1013.1
20190420203119 91 208 6.0 21.0 0.00 0.00 0.00 10 1013.1
20190420202619 91 244 6.0 17.0 0.00 0.00 0.00 9 1013.1
20190420202119 91 205 4.0 16.0 0.00 0.00 0.00 9 1012.8
20190420201619 91 242 4.0 11.0 0.00 0.00 0.00 10 1013.1
20190420201120 91 250 4.0 11.0 0.00 0.00 0.00 9 1013.1
20190420200619 91 192 4.0 10.0 0.00 0.00 0.00 10 1013.2
20190420200120 92 243 4.0 10.0 0.00 0.00 0.00 9 1013.1
20190420195619 92 227 3.0 10.0 0.00 0.00 0.00 9 1013.2
20190420195119 91 246 3.0 7.0 0.00 0.00 0.00 10 1013.1
20190420194619 91 315 3.0 12.0 0.00 0.00 0.00 10 1013.1
20190420194119 91 282 3.0 12.0 0.00 0.00 0.00 9 1013.1
20190420193619 91 252 5.0 11.0 0.00 0.00 0.00 10 1013.1
20190420193117 91 208 5.0 14.0 0.00 0.00 0.00 10 1013.2
20190420192617 91 179 5.0 14.0 0.00 0.00 0.00 10 1013.2
20190420192117 91 249 5.0 9.0 0.00 0.00 0.00 10 1013.2
20190420191617 89 225 6.0 12.0 0.00 0.00 0.00 11 1013.3
20190420191117 90 244 6.0 12.0 0.00 0.00 0.00 10 1013.3
20190420190617 89 200 4.0 11.0 0.00 0.00 0.00 11 1013.3
20190420190115 89 182 5.0 16.0 0.00 0.00 0.00 11 1013.4
20190420185615 89 218 7.0 16.0 0.00 0.00 0.00 11 1013.5
20190420185115 89 213 7.0 22.0 0.00 0.00 0.00 11 1013.5
20190420184615 89 176 6.0 22.0 0.00 0.00 0.00 10 1013.6
20190420184115 90 180 5.0 15.0 0.00 0.00 0.00 11 1013.6
20190420183615 89 211 5.0 15.0 0.00 0.00 0.00 11 1013.6
20190420183113 89 216 4.0 14.0 0.00 0.00 0.00 11 1013.6
20190420182613 88 195 6.0 17.0 0.00 0.00 0.00 12 1013.5
20190420182113 87 228 7.0 17.0 0.00 0.00 0.00 11 1013.6
20190420181612 89 197 6.0 11.0 0.00 0.00 0.00 12 1013.5
20190420181111 89 205 6.0 11.0 0.00 0.00 0.00 13 1013.6
20190420180611 87 165 6.0 14.0 0.00 0.00 0.00 13 1013.6
20190420180113 88 218 6.0 14.0 0.00 0.00 0.00 13 1013.8
20190420175612 88 196 5.0 13.0 0.00 0.00 0.00 13 1013.9
20190420175110 87 200 6.0 13.0 0.00 0.00 0.00 14 1014.0
20190420174608 87 194 6.0 14.0 0.00 0.00 0.00 13 1014.0
20190420174108 87 212 6.0 14.0 0.00 0.00 0.00 12 1014.1
20190420173610 87 167 5.0 12.0 0.00 0.00 0.00 13 1013.9
20190420173109 87 165 6.0 13.0 0.00 0.00 0.00 13 1014.0
20190420172609 87 157 5.0 15.0 0.00 0.00 0.00 13 1014.3
20190420172108 86 205 3.0 15.0 0.00 0.00 0.00 14 1014.1
20190420171609 86 227 2.0 8.0 0.00 0.00 0.00 16 1014.1
20190420171109 85 132 3.0 8.0 0.00 0.00 0.00 16 1014.0
20190420170608 85 157 3.0 8.0 0.00 0.00 0.00 16 1014.0
20190420170107 85 204 3.0 7.0 0.00 0.00 0.00 17 1014.0
20190420165607 85 118 3.0 7.0 0.00 0.00 0.00 16 1014.3
20190420164608 83 225 2.0 7.0 0.00 0.00 0.00 17 1014.4
20190420164106 83 189 2.0 7.0 0.00 0.00 0.00 18 1014.4
20190420163607 82 156 2.0 7.0 0.00 0.00 0.00 18 1014.5
20190420163107 82 157 3.0 9.0 0.00 0.00 0.00 18 1014.5
20190420162605 82 152 3.0 9.0 0.00 0.00 0.00 17 1014.4
20190420162104 82 117 3.0 9.0 0.00 0.00 0.00 17 1014.4
20190420161604 82 142 3.0 9.0 0.00 0.00 0.00 17 1014.4
20190420161105 81 144 3.0 8.0 0.00 0.00 0.00 18 1014.5
20190420160605 81 105 3.0 10.0 0.00 0.00 0.00 19 1014.4
20190420160105 80 192 3.0 10.0 0.00 0.00 0.00 18 1014.5
20190420155605 80 180 3.0 5.0 0.00 0.00 0.00 18 1014.6
20190420155102 80 132 2.0 7.0 0.00 0.00 0.00 19 1014.6
20190420154602 79 180 2.0 6.0 0.00 0.00 0.00 18 1014.6
20190420154102 79 144 2.0 6.0 0.00 0.00 0.00 18 1014.6
20190420153603 78 156 1.0 4.0 0.00 0.00 0.00 22 1014.6
20190420153102 77 132 1.0 2.0 0.00 0.00 0.00 22 1014.6
20190420152603 76 173 1.0 3.0 0.00 0.00 0.00 25 1014.5
20190420152102 76 173 1.0 3.0 0.00 0.00 0.00 25 1014.6
20190420151602 75 173 1.0 3.0 0.00 0.00 0.00 26 1014.5
20190420151102 75 173 1.0 3.0 0.00 0.00 0.00 24 1014.6
20190420150603 75 150 1.0 3.0 0.00 0.00 0.00 24 1014.6
20190420150102 75 144 1.0 3.0 0.00 0.00 0.00 25 1014.6
20190420145604 75 123 1.0 4.0 0.00 0.00 0.00 24 1014.6
20190420145102 75 128 2.0 4.0 0.00 0.00 0.00 24 1014.5